Location: Chavenne
(46.6022°N, 3.2951°E)
Time: 11:23:45
(UTC+00:00)

NOSS 3-4 (A) - Pass Details

Date: 09 April 2020
Orbit: 892 x 1320 km, 63.4° (Epoch: 01 June)

Event Time Altitude Azimuth Distance (km) Brightness Sun altitude
Rises 19:24:56 0° 319° (NW) 3,827 7.9 -10.2°
Reaches altitude 10° 19:27:28 10° 318° (NW) 2,929 7.2 -10.6°
Maximum altitude 19:34:27 73° 235° (SW) 1,217 4.1 -11.7°
Drops below altitude 10° 19:42:10 10° 153° (SSE) 3,216 5.7 -12.9°
Enters shadow 19:42:34 - 152° (SSE) 3,359 5.8 -13.0°
